Location: Stockholm
(59.3330°N, 18.0500°E)
Time: 10:32:04
(UTC+01:00)

FENGYUN 1C DEB - Pass Details

Date: 12 December 2023
Orbit: 850 x 2580 km, 98.6° (Epoch: 26 November)

Event Time Altitude Azimuth Distance (km) Brightness Sun altitude
Exits shadow 20:37:16 22° 35° (NE) 3,567 ? -41.5°
Maximum altitude 20:41:09 26° 7° (N) 3,500 ? -42.0°
Drops below altitude 10° 20:50:42 10° 319° (NW) 5,083 ? -43.0°
Sets 20:55:18 0° 309° (NW) 6,222 ? -43.5°
